Temp
-6 -7 -8 -8 -9 -9 -9 -9 -9 -8 -8 -8 -8 -8 -8 -8 -8 -8 -7 -7 -7 -8 -7 -7 -7 -7 -8 -8 -7 -8 -8 -8 -8 -8 -8 -8 -8 -7 -7 -7 -7 -6 -6 -6
-7 -8 -8 -9 -9 -9 -8 -8 -8 -8 -8 -8 -8 -8 -8 -8 -8 -8 -8 -7 -7 -7 -7 -7 -6 -7 -7 -7 -7 -7 -8 -7 -7 -7 -8 -8 -8 -8 -8 -7 -7 -7 -6 -6
-7 -8 -9 -9 -9 -8 -8 -8 -8 -8 -8 -8 -8 -8 -8 -8 -8 -8 -8 -7 -7 -7 -7 -6 -6 -6 -7 -7 -7 -7 -8 -8 -7 -8 -8 -8 -8 -7 -7 -7 -7 -7 -7 -6
-7 -9 -9 -9 -9 -8 -8 -8 -8 -8 -8 -8 -8 -8 -8 -8 -8 -8 -8 -7 -7 -7 -6 -6 -6 -6 -7 -7 -7 -8 -8 -8 -8 -8 -8 -7 -6 -7 -6 -7 -7 -7 -7 -7
-8 -8 -9 -9 -9 -8 -8 -8 -8 -8 -8 -8 -8 -8 -8 -7 -7 -7 -8 -7 -7 -7 -6 -6 -6 -6 -6 -7 -7 -7 -8 -8 -8 -8 -8 -8 -8 -7 -7 -7 -7 -6 -6 -6
-8 -8 -8 -9 -9 -8 -8 -8 -8 -8 -8 -8 -8 -8 -7 -7 -7 -7 -7 -7 -6 -7 -7 -6 -6 -6 -6 -7 -7 -7 -7 -8 -8 -8 -8 -8 -8 -8 -7 -7 -7 -6 -6 -6
-8 -8 -9 -9 -9 -9 -8 -8 -8 -8 -8 -8 -8 -8 -7 -7 -7 -7 -7 -7 -6 -7 -7 -6 -6 -6 -6 -6 -7 -7 -7 -7 -7 -7 -8 -8 -8 -8 -8 -7 -7 -6 -5 -5
-9 -9 -9 -9 -9 -8 -8 -8 -8 -8 -8 -8 -8 -7 -7 -7 -7 -7 -7 -8 -6 -7 -7 -6 -6 -6 -6 -6 -6 -7 -7 -7 -7 -7 -7 -7 -7 -7 -7 -7 -7 -6 -6 -4
-9 -9 -9 -9 -8 -8 -8 -8 -8 -8 -8 -8 -8 -7 -8 -7 -7 -8 -7 -9 -7 -7 -7 -7 -5 -5 -6 -6 -6 -6 -7 -7 -7 -7 -7 -7 -7 -7 -7 -7 -7 -7 -6 -6
-9 -9 -9 -9 -8 -8 -8 -8 -8 -8 -8 -8 -8 -7 -7 -7 -6 -7 -8 -8 -8 -7 -7 -6 -6 -5 -6 -6 -6 -6 -6 -7 -7 -6 -6 -6 -6 -6 -7 -7 -6 -6 -6 -6
-9 -9 -9 -9 -8 -8 -8 -8 -8 -8 -8 -8 -8 -7 -7 -7 -6 -7 -8 -8 -8 -8 -8 -7 -7 -6 -7 -7 -7 -6 -6 -6 -6 -6 -6 -6 -6 -6 -6 -6 -6 -6 -6 -6
-9 -9 -9 -9 -8 -8 -8 -8 -8 -8 -8 -8 -8 -7 -7 -8 -7 -7 -8 -8 -8 -8 -8 -7 -7 -7 -6 -7 -7 -7 -6 -6 -6 -6 -6 -6 -7 -7 -6 -6 -6 -6 -6 -6
-9 -8 -9 -9 -8 -8 -8 -8 -8 -8 -8 -8 -7 -7 -7 -7 -7 -7 -7 -8 -8 -7 -8 -7 -7 -7 -7 -8 -7 -7 -7 -7 -7 -6 -6 -6 -6 -6 -6 -6 -6 -6 -6 -6
-9 -8 -9 -9 -8 -8 -8 -8 -8 -8 -8 -8 -8 -7 -9 -8 -7 -7 -7 -7 -8 -8 -7 -7 -7 -8 -9 -8 -8 -8 -8 -7 -7 -7 -6 -7 -6 -6 -7 -7 -6 -6 -6 -6
-9 -9 -8 -8 -8 -9 -9 -9 -9 -8 -8 -8 -8 -8 -8 -8 -8 -8 -8 -8 -8 -8 -8 -7 -7 -7 -7 -8 -8 -8 -8 -7 -7 -7 -7 -7 -7 -7 -7 -7 -7 -7 -6 -6
-9 -9 -9 -9 -8 -9 -9 -9 -9 -9 -8 -8 -8 -8 -8 -9 -9 -8 -8 -8 -8 -8 -8 -7 -7 -8 -8 -7 -7 -8 -8 -8 -8 -8 -7 -6 -6 -7 -7 -7 -7 -7 -6 -6
-9 -9 -9 -9 -9 -9 -9 -9 -9 -9 -9 -8 -8 -8 -8 -8 -8 -9 -9 -9 -9 -9 -8 -8 -8 -8 -8 -8 -8 -8 -9 -9 -9 -8 -7 -7 -8 -8 -7 -7 -7 -7 -6 -7
-9 -9 -9 -9 -9 -9 -9 -9 -9 -9 -9 -8 -8 -8 -8 -8 -8 -9 -9 -9 -9 -9 -8 -9 -9 -9 -8 -8 -8 -9 -8 -8 -9 -9 -9 -8 -8 -8 -8 -8 -8 -8 -7 -7
-9 -9 -9 -9 -10 -9 -9 -9 -9 -9 -9 -8 -9 -9 -9 -8 -8 -8 -9 -9 -9 -9 -9 -9 -9 -9 -8 -9 -9 -9 -9 -9 -9 -9 -9 -8 -8 -8 -8 -8 -7 -7 -7 -7
-9 -9 -9 -9 -10 -9 -9 -9 -9 -9 -8 -8 -9 -9 -9 -9 -8 -9 -10 -9 -9 -9 -9 -9 -9 -9 -9 -9 -9 -9 -8 -9 -9 -9 -9 -8 -8 -8 -8 -8 -7 -7 -7 -7
-9 -9 -9 -9 -9 -9 -9 -9 -9 -9 -9 -9 -9 -8 -8 -8 -8 -10 -9 -10 -9 -9 -9 -9 -9 -9 -9 -9 -9 -9 -9 -9 -8 -8 -8 -8 -8 -8 -8 -8 -8 -8 -8 -8
-9 -9 -9 -9 -9 -9 -9 -9 -9 -10 -10 -10 -10 -8 -9 -9 -9 -8 -8 -9 -9 -10 -10 -9 -8 -8 -9 -9 -9 -9 -9 -9 -9 -9 -8 -9 -8 -8 -8 -8 -8 -8 -8 -9
-9 -9 -9 -9 -9 -9 -9 -9 -9 -9 -9 -10 -9 -9 -9 -9 -8 -9 -9 -9 -9 -9 -10 -10 -10 -10 -10 -10 -9 -9 -9 -9 -9 -9 -9 -9 -9 -9 -9 -9 -9 -9 -9 -9
-9 -10 -9 -9 -9 -9 -9 -9 -9 -9 -9 -9 -10 -10 -10 -8 -10 -10 -9 -9 -9 -9 -10 -10 -10 -10 -10 -11 -11 -11 -11 -11 -11 -10 -10 -10 -10 -10 -10 -10 -10 -10 -10 -10
-10 -9 -9 -9 -8 -9 -9 -9 -9 -10 -10 -10 -10 -10 -9 -9 -9 -9 -9 -9 -9 -10 -10 -10 -10 -10 -11 -11 -11 -11 -11 -11 -11 -10 -10 -10 -10 -11 -11 -11 -11 -11 -10 -10
-10 -9 -9 -9 -9 -9 -9 -9 -9 -9 -10 -10 -9 -9 -9 -9 -9 -9 -10 -10 -10 -10 -10 -10 -10 -11 -11 -11 -11 -11 -11 -11 -11 -11 -11 -11 -11 -11 -11 -11 -11 -11 -11 -10
Height
5906 5909 5914 5917 5919 5921 5923 5924 5925 5926 5925 5924 5923 5925 5925 5924 5922 5921 5919 5915 5913 5910 5907 5904 5904 5902 5896 5894 5894 5893 5895 5897 5897 5897 5895 5897 5898 5897 5895 5896 5896 5898 5900 5900
5904 5908 5913 5914 5917 5920 5923 5924 5925 5924 5924 5923 5922 5923 5923 5923 5922 5921 5918 5916 5913 5911 5907 5907 5906 5903 5901 5900 5897 5895 5896 5899 5897 5897 5894 5892 5891 5890 5891 5893 5893 5894 5894 5896
5902 5907 5909 5912 5916 5919 5922 5923 5922 5923 5921 5921 5921 5921 5922 5922 5921 5920 5918 5917 5914 5911 5910 5908 5908 5906 5904 5902 5900 5900 5899 5899 5897 5896 5893 5892 5888 5886 5887 5888 5889 5891 5892 5889
5899 5901 5905 5910 5914 5918 5921 5920 5920 5921 5920 5919 5920 5920 5919 5919 5920 5918 5917 5916 5914 5912 5911 5909 5906 5905 5904 5902 5901 5900 5900 5899 5897 5894 5891 5887 5880 5868 5875 5879 5884 5887 5889 5886
5897 5896 5902 5906 5912 5915 5919 5917 5918 5919 5918 5919 5919 5918 5918 5918 5918 5918 5916 5914 5914 5914 5912 5912 5910 5907 5905 5903 5902 5901 5897 5895 5891 5889 5889 5886 5883 5880 5880 5883 5883 5884 5883 5881
5890 5895 5900 5908 5910 5913 5915 5917 5917 5917 5917 5918 5918 5917 5918 5916 5916 5916 5916 5915 5915 5915 5913 5912 5912 5909 5904 5901 5901 5899 5896 5895 5892 5887 5887 5886 5883 5880 5880 5880 5880 5879 5877 5874
5889 5895 5902 5906 5909 5913 5915 5916 5915 5916 5916 5918 5916 5917 5918 5915 5915 5915 5914 5914 5914 5914 5912 5912 5912 5911 5906 5902 5900 5898 5896 5893 5889 5888 5886 5885 5884 5881 5879 5877 5876 5874 5871 5867
5887 5895 5901 5905 5908 5911 5911 5913 5913 5913 5915 5916 5915 5916 5917 5914 5913 5912 5911 5909 5911 5912 5912 5910 5909 5908 5908 5905 5902 5899 5896 5894 5892 5889 5888 5887 5886 5882 5881 5878 5874 5870 5866 5861
5885 5893 5899 5904 5906 5908 5909 5909 5910 5910 5912 5913 5915 5916 5915 5912 5911 5909 5906 5906 5908 5910 5910 5907 5910 5912 5907 5903 5900 5898 5896 5895 5893 5891 5889 5886 5883 5879 5876 5873 5869 5866 5862 5858
5885 5892 5897 5902 5904 5906 5906 5908 5908 5908 5910 5911 5912 5914 5914 5911 5910 5908 5905 5906 5907 5907 5909 5910 5910 5908 5905 5903 5900 5899 5897 5894 5893 5890 5885 5882 5878 5875 5872 5870 5867 5864 5861 5858
5883 5890 5897 5900 5902 5903 5904 5904 5905 5907 5908 5909 5910 5913 5913 5908 5907 5907 5905 5905 5906 5907 5909 5908 5904 5902 5899 5899 5897 5895 5895 5892 5888 5884 5882 5879 5877 5874 5871 5869 5866 5863 5860 5858
5883 5889 5894 5897 5898 5899 5902 5902 5904 5906 5908 5908 5908 5911 5909 5908 5904 5903 5902 5905 5906 5906 5902 5898 5896 5895 5894 5892 5891 5890 5889 5888 5885 5882 5879 5876 5873 5871 5869 5867 5865 5862 5859 5856
5880 5887 5891 5894 5896 5897 5899 5901 5903 5904 5905 5906 5907 5909 5906 5907 5903 5902 5905 5905 5903 5900 5898 5897 5896 5895 5893 5890 5884 5886 5884 5882 5881 5880 5878 5875 5871 5868 5866 5864 5863 5860 5858 5855
5879 5885 5889 5893 5894 5896 5897 5899 5900 5901 5902 5903 5904 5904 5905 5905 5905 5906 5904 5902 5900 5900 5899 5897 5894 5893 5888 5880 5880 5876 5879 5878 5877 5876 5875 5872 5868 5865 5862 5861 5859 5857 5855 5853
5876 5881 5886 5889 5891 5893 5894 5895 5896 5897 5897 5898 5899 5900 5903 5902 5902 5902 5899 5900 5899 5897 5894 5891 5887 5883 5879 5872 5870 5872 5873 5873 5873 5873 5871 5868 5865 5862 5858 5856 5855 5853 5850 5848
5873 5878 5881 5884 5887 5889 5888 5890 5891 5892 5892 5893 5894 5896 5896 5897 5897 5896 5896 5895 5894 5892 5889 5887 5881 5876 5871 5868 5871 5869 5869 5868 5868 5868 5866 5862 5860 5857 5855 5853 5850 5848 5845 5843
5871 5875 5878 5881 5883 5884 5885 5886 5887 5887 5888 5888 5889 5890 5890 5892 5891 5890 5891 5890 5888 5887 5887 5883 5880 5875 5870 5867 5868 5868 5864 5863 5863 5862 5858 5855 5853 5849 5848 5846 5844 5842 5839 5837
5869 5872 5876 5878 5879 5879 5880 5881 5882 5881 5881 5882 5884 5883 5885 5884 5885 5884 5885 5884 5882 5882 5880 5876 5872 5870 5868 5867 5865 5864 5861 5859 5857 5853 5851 5849 5848 5844 5843 5840 5836 5832 5829 5827
5867 5870 5872 5874 5876 5876 5877 5877 5878 5877 5878 5877 5878 5877 5878 5877 5877 5876 5878 5877 5876 5876 5874 5869 5867 5865 5863 5861 5860 5858 5855 5853 5851 5849 5847 5844 5843 5839 5835 5832 5829 5825 5822 5818
5863 5866 5868 5869 5869 5870 5873 5873 5872 5872 5872 5872 5872 5871 5870 5870 5869 5870 5868 5868 5868 5869 5867 5865 5862 5858 5858 5858 5855 5852 5850 5848 5846 5844 5840 5837 5836 5831 5827 5824 5819 5815 5813 5809
5859 5861 5862 5863 5863 5864 5867 5866 5865 5865 5869 5864 5864 5862 5862 5863 5862 5861 5859 5860 5860 5859 5858 5857 5856 5852 5853 5853 5850 5848 5845 5841 5838 5835 5831 5828 5826 5822 5818 5813 5808 5803 5800 5795
5853 5855 5856 5857 5858 5859 5860 5858 5858 5857 5857 5856 5855 5856 5855 5855 5853 5851 5834 5852 5843 5849 5850 5849 5848 5846 5843 5843 5841 5839 5837 5833 5829 5824 5821 5817 5813 5809 5805 5800 5794 5790 5787 5785
5844 5847 5849 5851 5852 5852 5852 5852 5851 5849 5849 5849 5849 5849 5848 5846 5842 5842 5842 5838 5841 5840 5840 5838 5837 5837 5837 5836 5833 5829 5826 5822 5818 5815 5811 5806 5802 5798 5794 5788 5785 5781 5777 5774
5837 5839 5841 5843 5845 5844 5844 5844 5843 5842 5842 5843 5842 5840 5839 5841 5837 5836 5837 5836 5835 5833 5830 5829 5830 5829 5826 5823 5821 5820 5817 5814 5808 5803 5798 5795 5792 5789 5784 5779 5775 5771 5768 5765
5831 5832 5834 5836 5837 5836 5836 5836 5835 5832 5833 5835 5837 5837 5836 5836 5833 5830 5828 5824 5821 5822 5823 5822 5820 5818 5816 5814 5811 5808 5804 5801 5797 5792 5789 5786 5783 5779 5774 5769 5765 5762 5758 5755
5824 5825 5827 5829 5829 5830 5831 5830 5831 5829 5829 5830 5831 5832 5832 5830 5827 5824 5822 5822 5821 5819 5817 5814 5812 5810 5807 5805 5801 5799 5795 5791 5787 5783 5779 5776 5771 5766 5762 5759 5755 5750 5748 5745
Wind_Speed
14 13 14 14 21 17 13 10 6 5 4 3 4 6 10 18 20 20 15 17 16 15 15 15 14 14 16 13 9 8 1 6 9 10 9 8 10 12 15 17 16 16 17 17
17 13 17 24 23 18 16 12 8 8 4 5 3 4 11 16 17 17 17 13 12 14 15 15 16 16 12 10 10 7 4 2 4 6 7 9 12 15 15 17 18 18 18 21
19 20 28 29 24 18 17 12 12 10 9 5 8 7 10 11 15 17 15 13 12 12 14 15 14 15 12 12 12 10 5 2 2 4 5 10 13 19 17 18 17 16 19 20
24 27 36 29 23 19 17 15 12 8 8 5 8 10 11 15 13 15 14 13 11 10 12 14 14 12 12 13 13 10 8 5 6 5 14 19 22 22 3 11 6 10 15 17
26 30 38 33 25 22 22 19 16 11 9 9 10 13 12 14 11 12 13 13 10 8 7 11 12 12 10 9 11 13 9 9 8 10 15 19 18 17 18 11 7 11 15 17
33 32 38 27 22 24 24 23 21 13 14 12 15 14 6 14 15 6 9 11 7 7 6 7 10 12 11 11 9 15 14 9 9 13 15 16 17 17 16 14 13 14 18 24
32 34 33 26 26 22 22 25 21 14 16 14 12 7 13 17 11 10 15 15 11 7 7 8 7 7 9 11 10 12 17 14 12 13 15 16 14 16 17 17 16 18 20 22
39 36 31 27 20 14 26 27 22 16 13 13 15 6 13 12 12 11 14 21 15 11 11 9 9 8 9 11 14 14 14 16 16 15 15 13 12 13 16 17 17 19 23 22
41 35 33 26 20 18 14 13 16 22 19 18 19 9 8 15 13 12 12 14 14 11 13 11 13 13 12 10 11 12 11 12 15 15 12 11 13 15 16 19 20 21 22 23
41 37 34 24 21 14 12 13 16 17 19 21 24 11 13 24 22 9 5 5 8 14 14 13 15 15 15 9 11 12 11 11 13 17 19 16 14 16 18 20 20 20 21 22
39 37 26 23 19 15 13 17 18 17 19 22 22 13 18 19 15 5 7 3 8 15 15 14 19 14 9 12 13 11 12 12 13 17 21 20 17 16 17 20 21 21 20 19
27 28 25 22 19 19 12 13 17 20 19 19 21 12 14 13 17 12 16 7 10 11 19 21 21 20 15 16 15 14 13 15 15 16 17 21 18 18 18 17 19 22 23 21
33 30 24 21 23 22 17 15 17 18 20 20 19 12 15 9 6 7 5 11 17 21 21 20 20 21 20 21 16 15 16 16 15 16 17 19 19 17 19 21 21 19 20 22
34 28 26 21 18 18 19 17 17 22 23 22 18 15 15 8 9 10 21 19 17 18 17 20 22 24 32 24 20 13 17 17 17 18 17 17 18 18 19 20 21 22 23 21
28 28 26 22 19 17 18 18 19 20 21 22 24 22 21 18 14 24 19 16 18 17 17 21 18 26 45 32 17 14 15 17 20 22 21 18 16 18 19 22 24 23 24 25
24 20 18 16 20 17 24 25 27 29 32 29 27 15 15 17 20 16 16 20 25 19 20 18 23 19 26 14 17 11 16 19 22 25 24 21 20 20 21 22 23 25 26 25
20 18 19 18 17 23 29 30 31 33 34 34 30 29 24 21 22 22 20 24 19 19 19 18 14 12 14 10 13 17 16 18 20 22 21 24 27 31 32 31 30 27 28 30
23 20 19 20 24 26 24 17 20 26 28 28 25 28 26 26 23 18 14 16 21 22 23 24 16 17 18 16 17 24 25 20 20 20 24 27 31 32 35 34 34 36 38 37
20 20 21 24 24 28 23 20 18 18 20 22 22 24 23 20 20 20 18 28 24 22 21 20 20 23 21 23 21 21 20 22 23 24 26 29 32 35 37 37 37 37 40 43
23 24 25 26 30 31 24 23 24 24 26 25 24 23 26 27 28 23 28 30 31 21 22 20 22 27 25 24 24 21 23 26 31 33 34 35 39 39 40 41 41 41 41 39
28 30 29 32 34 31 24 27 28 30 26 30 32 29 23 25 27 23 29 25 22 21 22 23 26 30 26 24 23 27 28 29 32 35 37 40 42 41 43 44 45 43 41 39
32 33 35 35 33 29 28 27 27 28 24 27 26 22 25 21 19 27 14 22 23 18 23 27 28 27 26 27 29 33 35 34 35 35 37 39 41 45 46 46 43 43 43 39
26 28 27 32 31 29 25 26 28 26 15 23 21 25 26 24 17 15 15 28 23 23 28 32 33 30 28 31 34 35 36 37 37 38 40 41 43 43 43 41 40 39 39 39
28 22 22 22 26 26 25 26 28 31 26 25 24 25 26 23 29 20 22 29 28 29 32 33 33 34 33 34 34 36 36 37 37 39 39 39 38 39 39 39 37 36 36 35
29 29 26 27 24 23 16 15 18 19 19 21 17 22 25 28 28 31 28 30 31 33 36 37 35 35 35 35 36 36 37 38 38 37 35 36 37 37 36 35 35 36 36 36
27 28 27 23 23 22 20 20 18 17 15 28 30 29 28 25 29 30 31 32 35 36 37 36 35 34 36 36 36 35 35 34 34 35 36 36 36 35 35 35 35 37 36 35
Wind_Direction
182 186 206 223 175 179 183 172 180 142 35 63 66 356 6 14 9 17 3 25 22 15 29 31 29 29 48 35 34 60 159 200 214 223 228 232 247 247 249 256 259 258 266 265
181 169 210 184 181 189 187 174 200 215 266 310 0 336 357 12 5 7 1 23 28 22 29 36 37 38 40 49 44 51 85 154 206 228 218 239 239 244 246 248 253 255 256 262
172 173 189 181 185 188 171 176 217 232 257 285 313 329 338 0 355 357 358 3 19 28 18 14 24 32 53 44 40 36 18 353 25 330 292 260 246 260 243 233 241 254 252 258
179 184 187 183 184 190 170 211 211 222 265 316 313 308 324 333 342 339 348 347 9 13 6 8 5 8 35 42 30 18 8 14 15 335 316 259 279 315 163 196 237 271 265 275
194 196 185 192 190 193 183 202 211 220 251 271 291 301 323 324 331 333 337 331 348 346 349 9 356 355 6 31 27 19 10 359 349 336 337 339 339 353 9 4 314 294 282 286
199 193 195 184 195 195 198 203 221 233 255 287 302 297 353 321 309 332 340 316 311 316 302 339 359 351 0 1 7 19 28 15 353 341 339 343 335 337 338 340 326 305 291 289
200 195 188 186 204 202 210 215 233 242 258 271 276 264 323 324 319 322 327 301 290 303 287 308 339 336 10 359 352 8 23 13 6 356 353 353 343 345 345 337 328 318 308 301
189 189 186 199 211 193 211 230 233 239 231 256 259 252 321 327 322 316 312 280 270 271 267 275 287 322 351 12 10 4 6 8 359 350 349 339 343 354 350 349 341 335 329 319
191 189 194 194 208 218 210 219 240 240 234 253 261 257 307 330 317 312 328 249 250 269 262 268 296 316 331 350 357 7 358 353 356 348 339 342 345 350 354 353 351 345 346 339
196 191 198 208 213 215 228 231 240 237 238 252 256 244 304 312 323 316 315 294 268 261 269 293 301 302 311 308 336 340 348 346 347 348 354 345 350 353 351 352 351 351 350 348
195 198 207 211 207 215 228 225 228 220 238 257 273 272 318 319 311 305 242 201 304 283 290 298 285 272 275 276 298 306 318 336 344 346 351 346 338 343 347 351 351 350 353 348
191 187 186 205 219 199 219 214 212 228 249 266 283 319 295 314 331 304 213 277 317 294 284 280 269 268 262 270 286 299 310 318 330 335 341 343 331 330 337 341 344 347 349 348
183 180 193 200 202 208 211 219 228 234 248 268 289 321 304 288 11 140 169 301 286 276 282 291 288 286 282 279 264 289 298 301 310 319 329 332 333 324 327 327 328 333 339 345
189 193 196 201 219 232 236 227 230 239 256 278 286 291 279 307 304 257 305 302 276 278 288 303 291 291 281 262 263 258 280 289 299 312 308 315 328 325 318 314 318 323 326 329
192 204 209 212 229 240 252 259 269 276 281 293 291 283 284 288 297 311 312 303 286 291 321 322 304 310 295 276 250 265 288 298 304 301 297 303 312 322 322 316 312 313 315 316
186 197 197 217 232 252 255 257 264 269 277 283 290 294 303 281 291 301 304 304 314 294 313 314 308 338 329 16 280 284 300 299 296 293 296 298 309 316 313 310 306 307 308 307
191 219 212 219 238 254 260 259 261 266 274 281 284 285 291 292 303 295 292 299 292 301 307 297 305 310 336 339 283 271 282 289 289 293 307 312 313 313 312 310 308 305 303 304
221 213 218 230 246 262 268 276 276 276 281 288 292 292 292 292 289 289 291 292 308 311 303 298 322 302 306 306 299 286 276 280 292 308 305 305 300 299 299 298 299 302 303 302
211 216 230 242 254 262 268 268 281 289 295 297 307 297 286 277 279 277 286 281 290 301 290 304 313 302 303 301 307 299 293 297 294 296 299 301 296 292 293 293 294 294 294 296
223 232 237 245 253 264 279 275 285 293 284 300 294 293 275 270 271 271 266 268 278 284 280 292 297 299 295 297 299 298 293 294 290 284 292 294 292 293 292 291 293 294 294 291
243 243 248 256 268 280 296 291 293 295 303 292 290 291 286 275 266 243 247 254 264 266 277 285 285 281 282 291 292 293 293 288 286 285 286 289 292 293 293 295 295 296 295 295
253 253 253 255 266 281 293 290 300 295 283 299 278 269 280 278 283 269 227 253 246 261 288 286 278 282 289 293 295 294 293 293 293 294 295 296 296 297 297 296 297 296 295 294
255 253 260 253 262 283 279 283 287 291 284 294 255 277 277 277 259 262 258 263 278 290 283 283 286 290 288 289 290 293 297 298 298 297 296 297 296 294 294 295 294 295 293 291
256 266 262 267 265 266 274 277 277 287 258 254 276 270 264 251 268 282 266 283 287 284 288 288 290 294 299 300 300 299 295 291 293 296 297 299 299 298 296 294 295 295 293 291
265 268 267 273 271 267 273 260 294 306 239 236 259 259 256 267 278 280 279 286 293 289 287 290 298 302 301 297 295 296 298 300 301 300 299 298 296 295 295 297 296 294 293 292
260 261 262 255 266 270 272 277 269 276 251 244 254 260 269 266 268 273 279 279 281 284 288 296 299 297 294 296 299 300 301 303 304 303 301 300 299 299 299 298 296 295 293 293